Location: Carrières
(48.9495°N, 2.0407°E)
Time: 18:02:48
(UTC+00:00)

Vanguard 3 - Visible Passes

Search period start: 23 April 2024 00:00
Search period end: 03 May 2024 00:00
Orbit: 510 x 3235 km, 33.3° (Epoch: 23 April)

Date Brightness Start Highest point End Pass type
(mag) Time Alt. Az. Time Alt. Az. Time Alt. Az.
23 Apr 10.4 01:38:36 20° S 01:42:27 22° SSE 01:51:09 10° ESE visible
23 Apr 9.8 03:42:49 10° SW 03:55:02 32° S 04:03:04 10° ESE visible
24 Apr 10.7 00:24:45 16° SE 00:24:45 16° SE 00:31:43 10° ESE visible
24 Apr 10.1 02:28:56 20° SSW 02:36:42 30° SSE 02:45:59 10° ESE visible
25 Apr 10.4 01:14:58 24° S 01:18:03 25° SSE 01:28:05 10° ESE visible
25 Apr 9.8 03:19:09 14° SW 03:30:57 35° S 03:39:58 10° ESE visible
26 Apr 10.7 00:00:55 19° SE 00:00:55 19° SE 00:08:47 10° ESE visible
26 Apr 10.1 02:05:05 24° SSW 02:12:20 33° SSE 02:22:45 10° ESE visible
27 Apr 10.4 00:50:55 27° SSE 00:53:26 28° SSE 01:04:43 10° ESE visible
27 Apr 9.9 02:55:05 17° SW 03:06:37 39° S 03:16:42 10° ESE visible
27 Apr 10.7 23:36:38 21° SE 23:36:38 21° SE 23:45:24 10° ESE visible
28 Apr 10.1 01:40:47 28° SSW 01:47:44 36° SSE 01:59:17 10° ESE visible
28 Apr 9.7 03:46:04 10° WSW 04:00:46 39° S 04:10:10 10° ESE visible
28 Apr 11.1 22:22:13 11° ESE 22:22:13 11° ESE 22:23:19 10° ESE visible
29 Apr 10.3 00:26:22 30° SSE 00:28:36 31° SSE 00:41:05 10° ESE visible
29 Apr 9.9 02:30:30 20° SW 02:42:05 41° S 02:53:14 10° ESE visible
29 Apr 10.6 23:11:48 23° SE 23:11:48 23° SE 23:21:39 10° E visible
30 Apr 10.1 01:15:55 30° SSW 01:22:55 39° SSE 01:35:36 10° ESE visible
30 Apr 9.8 03:20:27 10° WSW 03:36:16 41° S 03:46:41 10° ESE visible
30 Apr 11.0 21:57:02 13° ESE 21:57:02 13° ESE 21:59:50 10° ESE visible
01 May 10.3 00:01:08 33° SSE 00:03:34 33° SSE 00:17:10 10° E visible
01 May 9.9 02:05:14 21° SW 02:17:18 43° S 02:29:33 10° ESE visible
01 May 10.5 22:46:05 26° SE 22:46:05 26° SE 22:57:33 10° E visible
02 May 10.1 00:50:09 31° SSW 00:57:54 41° SSE 01:11:41 10° ESE visible
02 May 9.9 02:54:49 10° WSW 03:11:34 43° S 03:23:01 10° ESE visible
02 May 10.9 21:30:34 15° ESE 21:30:34 15° ESE 21:35:48 10° ESE visible
02 May 10.3 23:34:35 33° S 23:38:22 35° SSE 23:52:59 10° E visible
